Notices

What's New in latest Release from April 7th, 2021:

- Updated Glossary, including Speed of Maximum Gust, and Total Hourly Precipitation

- Updated national and regional climate services offices contacts and prices information

- Addition of station inventory lists for 1981-2010, 1971-2000, and 1961-1990 Normals.

If you haven't already, please take our survey and provide feedback about our website: https://eccc.sondage-survey.ca/f/LanguageSelection.aspx?s=442ca660-fcf1-47c0-95a9-59707d6fd709

Hourly Data Report for November 29, 2019

CARBERRY CS
MANITOBA
Current Station Operator: ECCC - MSC

49°54'20.900" N
99°21'26.800" W
383.50 m
5010547
71170
WZE

Download Data

Hourly Data (November 2019)
Hourly Data Report for November 29, 2019
TIME
LST
Temp Definition
°C
Dew Point Definition
°C
Rel Hum Definition
%
Precip. Amount Definition
mm

Wind Dir Definition
10's deg

Wind Spd Definition
km/h
Visibility Definition
km
Stn Press Definition
kPa
Hmdx Definition


Wind Chill Definition


Weather Definition


00:00 -7.8 -9.2 90 0.0 8 19   98.21   -15 LegendNANA
01:00 -7.9 -8.8 93 0.0 7 16   98.12   -14 LegendNANA
02:00 -7.2 -8.2 92 0.0 10 19   98.02   -14 LegendNANA
03:00 -7.1 -8.3 91 0.0 10 18   98.04   -14 LegendNANA
04:00 -7.1 -8.2 92 0.0 9 16   98.03   -13 LegendNANA
05:00 -7.1 -8.1 93 0.4 8 15   97.99   -13 LegendNANA
06:00 -7.1 -8.1 93 0.0 8 19   97.80   -14 LegendNANA
07:00 -6.9 -7.8 93 0.0 10 14   97.90   -13 LegendNANA
08:00 -6.5 -6.5 99 0.0 10 13   97.90   -12 LegendNANA
09:00 -6.1 -6.2 100 0.0 10 13   97.85   -11 LegendNANA
10:00 -5.8 -6.2 97 0.0 10 14   97.79   -11 LegendNANA
11:00 -5.3 -6.2 94 0.0 11 13   97.76   -10 LegendNANA
12:00 -4.9 -5.8 94 0.0 10 13   97.71   -10 LegendNANA
13:00 -4.7 -5.1 97 0.0 10 11   97.64   -9 LegendNANA
14:00 -4.5 -4.8 97 0.0 10 12   97.61   -9 LegendNANA
15:00 -4.4 -4.4 100 0.0 9 12   97.56   -9 LegendNANA
16:00 -4.3 -4.3 100 0.0 8 13   97.53   -9 LegendNANA
17:00 -4.2 -4.2 100 0.0 7 11   97.55   -9 LegendNANA
18:00 -4.1 -4.2 100 0.0 7 11   97.53   -9 LegendNANA
19:00 -3.9 -4.0 100 0.0 7 10   97.51   -8 LegendNANA
20:00 -3.5 -3.5 100 0.0 10 12   97.48   -8 LegendNANA
21:00 -3.5 -3.6 100 0.2 9 10   97.44   -7 LegendNANA
22:00 -3.5 -3.5 100 0.0 6 10   97.41   -7 LegendNANA
23:00 -3.7 -3.7 100 0.0 7 13   97.38   -9 LegendNANA

Notes on Data Quality.

Legend

  • E = Estimated
  • M = Missing
  • NA = Not Available*
  • [empty] = Indicates an unobserved value
Date modified: